Location: Olsztyn
(53.7767°N, 20.4765°E)
Time: 19:07:49
(UTC+02:00)

A-11 Canister half - Pass Details

Date: 21 January 2022
Orbit: 1513 x 1686 km, 47.2° (Epoch: 24 May)

Event Time Altitude Azimuth Distance (km) Brightness Sun altitude
Rises 21:52:58 0° 275° (W) 4,677 12.0 -49.3°
Reaches altitude 10° 21:56:07 10° 270° (W) 3,684 11.3 -49.7°
Enters shadow 21:58:44 21° 263° (W) 2,914 10.6 -49.9°
